Theta_e
316 316 318 318 317 316 317 317 318 320 317 319 320 320 332 329 329 329 330 330 330 330 330 332 332 331 327 323 324 324 325 324 324 326 326 321 316 316 316 315 315 314 312 312
316 319 318 315 316 317 318 318 318 316 316 316 318 320 324 327 328 328 329 329 329 328 327 329 330 329 328 326 325 324 323 322 322 322 318 317 317 316 316 315 315 315 313 313
318 320 318 320 320 320 319 319 319 317 315 314 313 313 321 322 323 326 327 327 327 327 327 327 328 329 330 329 328 327 324 322 320 319 318 317 316 316 315 314 314 314 314 314
319 320 320 319 321 318 320 319 319 318 316 317 312 314 314 319 324 327 326 324 325 324 323 322 325 328 329 329 328 328 327 325 323 321 320 319 318 317 317 316 316 315 314 314
324 320 320 320 320 319 320 318 315 316 315 313 313 312 311 320 325 323 320 321 321 319 317 317 317 323 322 319 318 322 326 324 321 320 318 316 314 312 311 310 309 308 310 312
321 319 320 320 319 316 315 315 310 311 310 313 314 314 317 321 322 320 319 319 317 313 312 312 313 313 314 314 314 315 313 312 311 311 311 310 309 308 308 308 308 308 308 308
321 322 320 321 323 319 313 311 313 312 315 316 313 322 319 318 318 318 318 317 312 312 310 309 309 310 312 312 311 311 311 311 310 309 309 308 308 308 308 308 308 308 308 309
322 323 322 321 321 320 314 313 313 316 316 316 314 324 321 318 315 314 314 312 313 309 306 308 308 309 310 310 310 310 310 309 309 308 308 308 308 307 307 307 306 307 308 307
322 324 321 318 317 317 316 316 312 314 315 316 315 318 319 318 315 314 315 314 308 307 306 307 309 309 309 310 310 309 309 309 309 308 308 307 306 306 305 304 304 304 305 305
321 322 322 323 317 315 313 312 316 314 319 321 315 316 320 320 318 316 314 310 309 307 307 305 307 308 309 309 309 309 309 308 308 307 306 305 305 305 304 304 304 304 304 304
320 319 320 322 320 319 315 316 311 312 314 316 317 316 312 315 315 313 311 310 309 308 306 305 306 307 309 309 309 309 308 308 307 306 305 304 304 304 304 304 304 303 303 304
321 317 321 321 320 318 315 315 312 316 316 314 314 318 313 312 311 310 310 310 308 308 306 305 305 307 309 309 309 308 307 307 305 304 304 304 303 304 304 304 304 304 304 304
318 316 315 311 311 317 320 317 311 310 310 316 316 316 313 312 312 311 311 309 308 308 306 305 307 308 308 308 308 307 307 306 305 304 303 303 304 303 303 304 304 304 304 304
320 316 313 312 311 319 321 320 318 315 313 316 314 315 314 313 313 312 311 309 308 307 306 305 306 307 308 308 307 307 306 305 304 303 303 302 303 303 303 304 304 304 304 304
312 317 319 318 318 320 320 320 320 316 315 318 318 315 314 311 310 311 309 308 308 308 307 307 306 307 307 306 306 306 305 304 303 302 302 302 303 304 304 305 305 305 305 305
313 319 320 323 321 322 323 322 321 320 318 315 315 315 312 311 311 311 309 309 309 307 307 308 307 307 306 306 305 305 304 303 303 303 302 303 303 304 305 305 306 306 306 306
316 317 318 320 320 320 313 316 319 318 315 314 316 313 312 313 313 312 310 308 307 307 308 307 306 306 305 304 304 304 303 303 302 302 302 303 303 304 305 306 306 306 306 306
315 316 316 320 317 321 314 315 318 319 315 314 313 314 313 312 312 311 308 306 306 307 307 306 306 305 305 304 303 303 302 302 302 302 302 303 304 304 305 306 307 307 307 307
314 315 317 318 318 317 319 319 316 316 318 314 314 314 314 314 311 311 307 305 307 307 307 307 306 304 304 303 302 302 301 302 303 303 303 303 303 304 305 306 307 307 306 306
313 311 315 316 319 323 319 318 314 315 318 315 314 314 315 312 314 310 309 308 308 308 307 306 305 304 303 303 302 301 302 302 303 303 303 303 304 304 305 307 308 307 307 306
317 316 316 315 318 317 316 317 315 320 320 315 314 313 313 313 311 309 308 307 308 308 307 305 304 303 302 302 302 302 302 303 302 303 303 303 304 305 306 307 308 307 307 306
319 317 316 315 319 322 316 316 319 317 313 314 313 312 312 310 310 309 306 308 308 307 306 304 304 303 302 302 302 301 302 302 303 303 303 303 304 305 306 307 308 308 307 306
321 318 319 317 318 314 315 316 313 311 314 314 313 313 311 310 308 306 307 306 307 306 304 304 303 302 302 302 302 302 302 302 302 303 303 303 304 305 306 307 308 308 307 306
318 315 319 319 318 316 316 315 314 311 313 313 312 310 308 308 307 306 306 305 305 305 304 303 302 301 301 302 302 302 302 302 302 302 303 304 304 305 306 307 308 308 307 306
315 315 316 315 314 314 315 315 314 314 312 311 309 308 308 306 306 306 305 305 305 304 303 303 302 301 301 302 301 301 302 302 302 302 303 303 304 305 306 307 308 308 307 307
313 315 316 318 314 315 315 314 314 314 313 311 309 307 307 306 306 307 305 306 305 304 303 303 302 301 302 302 301 301 302 302 301 302 303 303 303 305 306 307 308 308 308 307
Wind_Speed
5 7 1 1 3 5 5 4 3 2 4 2 4 5 18 12 7 7 5 5 6 7 8 16 15 13 12 12 11 10 9 9 9 9 11 10 8 9 12 11 15 12 10 11
7 3 2 7 6 7 4 3 2 5 3 3 6 1 5 6 3 6 6 6 7 5 7 15 17 16 16 14 13 13 14 13 13 13 11 10 12 14 18 18 20 18 15 16
6 3 5 2 3 4 1 3 2 5 5 3 4 3 3 2 4 7 6 6 4 8 8 8 13 18 17 16 15 17 17 17 15 14 16 17 17 19 22 23 22 22 19 17
5 2 2 5 3 3 2 3 2 4 2 2 3 3 0 2 3 8 8 6 7 7 6 7 13 18 18 20 19 20 22 20 19 17 18 19 19 21 25 26 29 29 27 24
2 5 3 4 2 2 4 4 3 2 2 3 6 4 4 3 3 5 7 7 8 8 8 9 16 16 11 11 14 17 18 17 16 17 18 18 18 18 19 21 25 27 29 29
1 3 2 5 2 3 3 1 6 4 3 3 2 3 4 2 5 5 5 8 7 5 4 2 2 2 6 6 4 3 3 4 7 9 10 15 21 25 28 30 31 34 35 35
5 3 4 2 2 3 8 7 4 5 5 3 4 2 6 4 4 5 9 7 6 5 2 3 5 4 0 1 2 4 6 8 10 14 18 20 22 23 24 26 29 32 31 30
3 4 2 2 2 1 4 4 5 2 1 5 4 2 4 3 3 5 5 7 4 4 3 2 1 3 2 2 3 4 8 12 16 19 20 21 22 25 28 30 29 30 27 26
4 3 3 2 2 5 2 0 3 6 2 2 3 5 6 3 3 3 5 5 4 2 3 1 2 1 2 3 5 8 14 20 23 23 23 28 33 30 29 26 27 29 32 33
3 1 1 3 2 5 2 5 3 3 0 3 5 4 5 5 8 3 4 3 1 2 1 3 6 5 5 6 10 15 21 24 23 22 30 32 30 27 26 26 27 28 27 25
3 4 5 2 0 4 2 1 6 4 4 4 2 5 5 7 7 7 5 2 2 1 2 5 9 7 8 11 15 21 24 21 24 30 32 31 29 27 26 25 25 24 23 21
2 4 3 7 2 2 1 1 4 5 3 1 3 6 2 3 4 6 5 3 1 2 5 6 8 6 11 16 22 27 25 23 28 30 32 31 29 27 26 25 25 24 24 25
5 2 3 7 6 4 5 2 5 5 3 5 5 6 1 2 3 2 2 3 3 5 7 5 7 10 15 22 27 29 24 27 31 32 32 31 28 27 27 27 27 26 26 25
7 3 6 6 6 2 5 2 2 4 3 3 6 6 6 6 5 4 4 4 5 6 5 5 7 13 20 25 28 28 27 30 34 32 31 29 28 26 27 29 28 27 27 25
4 3 4 5 5 3 5 6 4 7 5 5 7 6 6 8 7 5 4 4 6 6 6 6 6 14 23 25 27 28 28 33 31 29 29 29 27 28 28 29 30 29 27 25
2 2 2 3 3 1 4 9 8 7 5 7 4 6 5 4 3 3 7 5 6 7 7 7 10 18 20 24 27 26 29 29 27 27 29 28 26 28 28 30 30 29 27 25
3 5 3 4 4 5 3 4 3 3 3 5 4 6 5 5 5 5 7 6 7 7 6 7 11 17 21 25 26 27 29 28 25 26 27 25 26 28 29 30 29 27 26 24
6 5 2 3 4 2 6 3 5 5 3 5 3 3 6 6 4 5 5 5 7 6 6 8 15 17 22 24 25 24 25 22 23 24 23 26 27 29 30 30 28 25 21 19
3 5 2 3 2 6 5 1 2 3 7 7 7 5 4 2 2 5 7 6 5 3 8 12 14 16 20 22 21 22 20 21 22 22 24 28 29 29 30 29 29 27 23 20
5 5 4 2 2 4 6 2 3 4 5 7 7 8 6 4 2 4 4 4 4 5 7 11 15 16 20 20 19 20 20 20 20 24 28 30 30 29 29 30 27 25 25 21
2 2 5 3 4 7 8 5 3 5 8 5 8 7 7 6 6 3 3 4 3 4 8 13 14 15 18 18 20 21 20 19 25 28 29 30 31 30 29 28 27 25 24 22
7 6 4 3 2 7 7 5 8 7 3 4 6 6 7 5 3 4 4 4 3 5 10 13 14 19 20 17 19 19 19 26 26 27 27 29 31 31 29 29 26 24 21 20
2 7 5 8 7 5 7 6 5 4 4 6 6 5 6 6 6 5 4 5 5 6 10 11 12 19 19 17 16 18 23 26 27 27 26 27 31 30 31 28 25 21 19 17
3 4 3 3 6 8 8 6 5 6 6 4 5 7 8 6 6 5 4 4 5 6 10 11 14 18 20 19 18 18 23 26 26 25 25 26 28 32 31 29 25 21 18 18
5 6 6 4 7 5 6 7 8 7 6 5 5 8 9 7 5 5 4 6 6 6 9 10 13 17 19 20 19 19 22 24 24 24 23 24 27 27 28 27 26 22 19 18
4 7 5 6 8 5 7 6 5 9 11 10 9 7 7 10 7 7 6 7 5 6 7 10 12 15 18 20 18 20 22 23 24 22 22 24 26 27 26 25 23 23 17 19
Wind_Direction
10 70 80 326 91 109 101 83 26 308 16 323 227 181 177 171 163 170 183 193 201 223 254 223 214 211 207 211 224 235 246 252 255 265 266 262 273 309 305 307 314 306 310 310
34 64 149 119 92 97 79 100 334 294 313 46 4 74 154 155 152 156 179 215 215 231 252 232 228 227 221 225 231 242 251 257 258 261 269 277 287 292 286 292 289 286 292 305
119 163 168 93 64 68 81 133 254 227 340 53 11 48 90 126 114 135 183 228 234 223 225 243 246 239 237 240 242 246 253 257 263 271 283 290 291 292 298 299 301 301 291 286
97 69 88 56 57 99 16 220 246 273 69 227 36 267 73 321 162 172 186 212 228 249 262 254 246 247 247 253 260 262 261 266 272 286 299 304 307 304 300 299 299 297 295 289
257 144 100 71 285 195 222 14 31 358 100 85 4 82 257 149 127 175 198 213 220 230 238 246 247 244 268 278 286 272 270 279 293 304 303 306 313 317 318 315 314 311 308 307
65 324 109 189 81 47 330 40 46 56 75 49 334 125 295 226 189 172 192 210 210 193 224 357 61 278 296 297 322 360 6 348 329 326 332 326 318 315 312 311 312 309 304 298
11 341 315 134 41 18 48 45 345 1 11 224 333 77 242 285 228 214 195 183 175 188 32 342 337 331 224 290 356 3 350 336 330 322 315 314 308 305 304 305 306 305 302 301
139 323 352 20 109 157 45 127 148 270 287 278 317 300 272 233 39 64 98 153 141 44 347 56 134 154 130 83 350 343 332 324 320 315 314 314 315 313 308 305 305 302 300 302
138 275 319 71 119 115 151 71 166 105 7 26 278 294 328 152 121 98 117 107 55 65 110 52 155 358 324 315 314 319 324 321 321 318 318 318 315 314 313 313 309 300 294 292
181 25 12 314 93 41 143 148 47 14 248 307 304 292 239 232 233 154 162 118 75 156 62 328 256 272 289 304 319 323 319 315 315 320 319 315 313 313 314 312 307 302 300 301
113 107 292 349 75 172 31 1 54 111 122 174 279 268 214 258 254 192 193 229 277 209 298 305 313 288 299 315 316 317 315 313 318 320 320 317 316 317 317 313 311 309 305 302
61 130 206 238 298 257 151 139 118 113 246 114 153 273 279 283 163 153 198 277 241 303 302 304 328 312 310 313 317 319 319 317 321 323 324 322 319 318 315 312 313 312 306 302
181 31 23 350 357 9 75 65 107 102 86 202 143 264 225 216 158 169 237 285 266 310 319 333 319 309 312 315 318 315 313 321 323 325 325 323 321 316 307 310 304 300 297 297
83 109 148 187 216 178 294 245 97 129 120 213 223 275 246 230 218 258 285 301 276 295 294 294 298 304 309 310 314 313 315 325 327 326 323 319 317 308 303 304 302 295 297 289
98 150 185 246 242 217 239 259 227 195 206 184 263 220 276 208 215 234 236 261 275 283 286 278 292 298 301 310 319 318 321 325 325 323 319 320 316 310 307 307 308 303 294 292
25 182 144 292 5 166 272 278 275 236 224 249 263 270 200 195 169 212 229 261 267 280 284 293 294 294 307 317 320 322 322 321 322 321 321 326 313 313 310 310 308 307 298 298
121 131 99 266 334 317 341 234 239 284 188 163 202 239 165 206 233 250 243 241 257 273 275 280 284 305 314 321 326 323 324 328 322 317 319 319 319 315 312 314 313 307 304 298
130 104 101 238 354 344 239 275 241 238 227 212 241 206 194 213 238 248 213 210 254 248 271 287 297 310 324 327 330 327 329 322 317 318 316 320 319 317 318 318 316 317 319 308
98 121 94 151 193 292 318 181 128 174 274 200 208 210 209 162 85 278 214 215 221 232 276 285 307 321 324 331 334 331 326 321 317 326 321 324 321 318 320 321 320 323 321 319
83 89 119 137 165 231 239 260 122 123 305 209 181 204 183 143 334 262 200 201 217 270 287 310 323 323 328 333 333 332 326 323 322 325 326 326 324 321 321 324 324 329 334 320
112 38 175 152 220 286 243 182 163 83 240 186 191 194 169 188 205 206 165 182 221 288 318 323 323 319 331 334 335 329 322 325 328 328 329 328 329 327 329 327 328 332 337 340
172 157 196 108 163 277 160 85 164 214 221 201 201 195 193 221 213 213 204 200 242 303 323 329 324 332 338 343 343 329 329 334 334 334 331 330 334 332 332 332 329 334 338 333
204 186 190 175 210 238 222 199 227 177 192 205 193 183 182 186 210 209 215 225 250 296 316 325 324 331 340 346 349 331 333 337 334 334 335 333 336 337 342 335 334 337 341 342
238 150 190 101 245 229 240 257 236 201 221 211 186 164 164 187 203 206 187 221 250 296 321 325 329 336 336 342 345 342 338 337 335 332 336 337 336 339 343 343 341 345 350 343
192 134 172 256 278 278 254 225 222 210 216 180 162 168 179 185 202 186 204 221 247 292 317 324 328 332 332 339 344 342 342 341 333 335 339 338 339 339 339 343 346 359 14 10
196 177 163 216 219 177 239 247 198 198 206 189 162 152 189 191 187 180 205 216 239 287 312 320 330 336 339 346 345 340 346 345 335 336 340 339 340 340 341 343 348 16 25 28